sat.trackr.live / text

‹ back to catalog

BEIDOU-3 M14 (C33)

NORAD 43623 · 2018-072B

PAYLOAD ACTIVE UNKNOWN

§ Identity

Operator
Country
PRC
Launch date
2018-09-19
Launch site
XICLF
Launch vehicle
Mass (kg)
RCS (m²)

Purposes: earth_obs, nav

External: N2YO · Heavens-Above · Gunter

§ Orbital elements

Epoch: 2026-05-22T15:03:26.691264Z

Period
773.23 min
Inclination
56.6051°
Eccentricity
0.0006624
Mean motion
1.86231107 rev/d
Perigee alt
21,509.6 km
Apogee alt
21,546.5 km
Semi-major
27,906.2 km
B*
0.0000e+0
RAAN
63.4972°
Arg perigee
351.7889°
Mean anomaly
8.1977°
Rev number
5,217

§ Raw data

BEIDOU-3 M14 (C33)1 43623U 18072B   26142.62739226 -.00000053  00000+0  00000+0 0  99952 43623  56.6051  63.4972 0006624 351.7889   8.1977  1.86231107 52179

JSON: /api/v1/satellites/43623 · /tle

For live sub-satellite position, see the globe view (requires WebGL).

§ Visibility from observer

Set your observer location to see the next 7 days of passes ≥ 10°. The values pass through the URL so the page stays shareable.

No JS? Fill the form by hand. The geolocation button needs JavaScript.